Le nostre stazioni meteo in Italia

Pubblicità
Il mio iltempo24.it
Catania/Sigonella, Italia (16459): Temperatura & dewpoint: 15.04.2019 09:00:00 - 21.04.2019 09:00:00 (CEST)Catania/Sigonella, Italia (16459): velocità del vento: 15.04.2019 09:00:00 - 21.04.2019 09:00:00 (CEST)Catania/Sigonella, Italia (16459): direzione del vento: 15.04.2019 09:00:00 - 21.04.2019 09:00:00 (CEST)Catania/Sigonella, Italia (16459): reduced air pressure: 15.04.2019 09:00:00 - 21.04.2019 09:00:00 (CEST)Catania/Sigonella, Italia (16459): visibility: 15.04.2019 09:00:00 - 21.04.2019 09:00:00 (CEST)
Data & Tempo tt [°C] td [°C] ff [km/h] ff [kn] dd ppp [hPa] vv [km]
21.04.2019 09:00:00 - - - - - - -
21.04.2019 08:00:00 15,2 15,2 26 14 E 1022,4 10
21.04.2019 07:00:00 13,0 13,0 16 9 ENE - 10
21.04.2019 06:00:00 13,0 13,0 22 12 E - 10
21.04.2019 05:00:00 13,4 13,4 13 7 ENE 1022,8 10
21.04.2019 04:00:00 13,0 13,0 15 8 ENE - 10
21.04.2019 03:00:00 13,0 13,0 15 8 ENE - 10
21.04.2019 02:00:00 13,0 13,0 13 7 ENE 1022,6 10
21.04.2019 01:00:00 13,0 13,0 8 4 E - 10
21.04.2019 00:00:00 13,0 13,0 9 5 E - 10
20.04.2019 23:00:00 13,2 13,2 13 7 E 1023,5 10
20.04.2019 22:00:00 13,0 13,0 13 7 E - 10
20.04.2019 21:00:00 13,0 13,0 11 6 E - 10
20.04.2019 20:00:00 14,0 14,0 15 8 E 1023,0 13
20.04.2019 19:00:00 15,0 14,0 16 9 E - 10
20.04.2019 18:00:00 16,0 11,0 26 14 E - 10
20.04.2019 17:00:00 16,8 11,5 26 14 E 1023,5 16
20.04.2019 16:00:00 17,0 11,0 22 12 E - 10
20.04.2019 15:00:00 17,0 12,0 21 11 E - 10
20.04.2019 14:00:00 16,6 9,1 4 2 E 1024,8 15
20.04.2019 13:00:00 18,0 8,0 22 12 E - 10
20.04.2019 12:00:00 18,0 9,0 18 10 E - 10
20.04.2019 11:00:00 17,4 10,8 16 9 E 1025,8 9
20.04.2019 10:00:00 15,0 12,0 4 2 ESE - 7
20.04.2019 09:00:00 12,0 12,0 8 4 OSO - 6
20.04.2019 08:00:00 8,0 8,0 5 3 O 1025,7 6
20.04.2019 07:00:00 7,0 7,0 8 4 O - 6
20.04.2019 06:00:00 9,0 8,0 9 5 O - 10
20.04.2019 05:00:00 8,4 7,7 9 5 ONO 1025,6 10
20.04.2019 04:00:00 8,0 8,0 8 4 OSO - 10
20.04.2019 03:00:00 9,0 9,0 8 4 OSO - 10
20.04.2019 02:00:00 9,8 9,8 5 3 ONO 1026,6 10
20.04.2019 01:00:00 9,0 9,0 8 4 O - 10
20.04.2019 00:00:00 10,0 10,0 4 2 O - 10
19.04.2019 23:00:00 10,4 10,4 4 2 E 1027,1 10
19.04.2019 22:00:00 12,0 12,0 8 4 ENE - 10
19.04.2019 21:00:00 13,0 13,0 9 5 ENE - 10
19.04.2019 20:00:00 13,8 13,8 13 7 E 1026,6 10
19.04.2019 19:00:00 15,0 13,0 16 9 E - 10
19.04.2019 18:00:00 15,0 10,0 13 7 E - 10
19.04.2019 17:00:00 16,2 8,2 22 12 E 1026,2 10
19.04.2019 16:00:00 16,0 5,0 22 12 E - 10
19.04.2019 15:00:00 17,0 7,0 22 12 E - 10
19.04.2019 14:00:00 16,8 8,5 22 12 E 1027,5 10
19.04.2019 13:00:00 16,0 11,0 21 11 E - 8
19.04.2019 12:00:00 17,0 12,0 21 11 E - 10
19.04.2019 11:00:00 17,8 13,9 22 12 E 1026,8 8
19.04.2019 10:00:00 16,0 13,0 13 7 E - 7
19.04.2019 09:00:00 13,0 12,0 13 7 ONO - 6
19.04.2019 08:00:00 10,2 8,6 5 3 O 1026,4 6
19.04.2019 07:00:00 10,0 9,0 5 3 O - 8
19.04.2019 06:00:00 10,0 9,0 5 3 O - 8
19.04.2019 05:00:00 10,0 9,7 9 5 NNO 1024,8 8
19.04.2019 04:00:00 9,0 9,0 5 3 ONO - 6
19.04.2019 03:00:00 8,0 8,0 9 5 OSO - 6
19.04.2019 02:00:00 9,2 9,2 5 3 O 1024,8 3,0
19.04.2019 01:00:00 10,0 10,0 4 2 OSO - 5
19.04.2019 00:00:00 12,0 12,0 4 2 SE - 5
18.04.2019 23:00:00 13,0 13,0 9 5 E 1024,4 12
18.04.2019 22:00:00 13,0 13,0 9 5 ENE - 10
18.04.2019 21:00:00 14,0 14,0 11 6 E - 10
18.04.2019 20:00:00 14,0 14,0 16 9 E 1022,1 12
18.04.2019 19:00:00 15,0 12,0 18 10 E - 10
18.04.2019 18:00:00 17,0 10,0 24 13 E - 10
18.04.2019 17:00:00 17,2 10,8 22 12 E 1021,7 12
18.04.2019 16:00:00 18,0 11,0 24 13 E - 10
18.04.2019 15:00:00 18,0 11,0 22 12 E - 10
18.04.2019 14:00:00 18,0 9,6 22 12 E 1022,0 12
18.04.2019 13:00:00 18,0 8,0 18 10 E - 10
18.04.2019 12:00:00 18,0 7,0 18 10 E - 10
18.04.2019 11:00:00 17,0 7,1 9 5 E 1022,2 10
18.04.2019 10:00:00 15,0 11,0 5 3 SO - 8
18.04.2019 09:00:00 12,0 11,0 5 3 O - 7
18.04.2019 08:00:00 9,0 9,0 5 3 O 1021,6 7
18.04.2019 07:00:00 7,0 7,0 5 3 OSO - 7
18.04.2019 06:00:00 8,0 8,0 9 5 ONO - 8
18.04.2019 05:00:00 8,8 8,8 13 7 O 1020,9 8
18.04.2019 04:00:00 8,0 8,0 11 6 O - 8
18.04.2019 03:00:00 10,0 10,0 13 7 O - 10
18.04.2019 02:00:00 8,4 8,4 9 5 OSO 1021,6 10
18.04.2019 01:00:00 9,0 9,0 11 6 O - 10
18.04.2019 00:00:00 10,0 10,0 5 3 OSO - 10
17.04.2019 23:00:00 13,0 13,0 5 3 ONO 1021,2 10
17.04.2019 22:00:00 13,0 13,0 4 2 O - 10
17.04.2019 21:00:00 13,0 11,0 8 4 O - 10
17.04.2019 20:00:00 14,8 11,0 4 2 ENE 1019,6 12
17.04.2019 19:00:00 15,0 10,0 8 4 E - 10
17.04.2019 18:00:00 15,0 11,0 11 6 E - 10
17.04.2019 17:00:00 15,2 10,6 15 8 E 1019,5 12
17.04.2019 16:00:00 15,0 12,0 18 10 ENE - 10
17.04.2019 15:00:00 16,0 10,0 26 14 E - 10
17.04.2019 14:00:00 16,6 10,7 26 14 E 1019,5 12
17.04.2019 13:00:00 20,0 11,0 15 8 E - 10
17.04.2019 12:00:00 18,0 11,0 8 4 ENE - 10
17.04.2019 11:00:00 17,0 13,3 5 3 SSO 1020,1 15
17.04.2019 10:00:00 16,0 13,0 5 3 O - 10
17.04.2019 09:00:00 14,0 13,0 5 3 OSO - 10
17.04.2019 08:00:00 11,0 11,0 2 1 O 1019,9 10
17.04.2019 07:00:00 11,0 11,0 5 3 OSO - 8
17.04.2019 06:00:00 11,0 11,0 5 3 OSO - 10
17.04.2019 05:00:00 12,0 12,0 8 4 ONO 1019,4 13
17.04.2019 04:00:00 12,0 12,0 9 5 O - 10
17.04.2019 03:00:00 12,0 12,0 9 5 NO - 10
17.04.2019 02:00:00 12,4 12,4 13 7 O 1019,9 13
17.04.2019 01:00:00 13,0 13,0 11 6 O - 10
17.04.2019 00:00:00 12,0 12,0 15 8 O - 10
16.04.2019 23:00:00 13,4 12,6 13 7 O 1020,4 13
16.04.2019 22:00:00 14,0 11,0 9 5 O - 10
16.04.2019 21:00:00 15,0 11,0 5 3 E - 10
16.04.2019 20:00:00 15,4 10,6 8 4 NNO 1020,1 12
16.04.2019 19:00:00 17,0 9,0 9 5 ONO - 10
16.04.2019 18:00:00 19,0 9,0 13 7 O - 10
16.04.2019 17:00:00 18,4 9,2 8 4 O 1019,3 12
16.04.2019 16:00:00 17,0 9,0 18 10 ESE - 10
16.04.2019 15:00:00 18,0 9,0 24 13 ESE - 10
16.04.2019 14:00:00 18,0 8,8 13 7 E 1020,5 12
16.04.2019 13:00:00 18,0 8,0 16 9 E - 10
16.04.2019 12:00:00 18,0 7,0 8 4 ESE - 10
16.04.2019 11:00:00 16,4 7,1 5 3 S 1020,5 12
16.04.2019 10:00:00 15,0 9,0 5 3 O - 10
16.04.2019 09:00:00 11,0 10,0 11 6 O - 10
16.04.2019 08:00:00 6,8 6,8 8 4 SO 1019,7 10
16.04.2019 07:00:00 6,0 6,0 8 4 O - 10
16.04.2019 06:00:00 6,0 6,0 5 3 O - 10
16.04.2019 05:00:00 7,8 7,8 5 3 SO 1018,7 10
16.04.2019 04:00:00 8,0 8,0 5 3 ONO - 10
16.04.2019 03:00:00 8,0 8,0 13 7 ONO - 10
16.04.2019 02:00:00 7,8 7,8 9 5 OSO 1018,6 10
16.04.2019 01:00:00 8,0 8,0 8 4 SO - 10
16.04.2019 00:00:00 9,0 9,0 11 6 OSO - 10
15.04.2019 23:00:00 10,9 8,5 4 2 S 1017,7 10
15.04.2019 22:00:00 11,0 8,0 16 9 OSO - 10
15.04.2019 21:00:00 11,0 8,0 21 11 SO - 10
15.04.2019 20:00:00 12,8 9,1 11 6 OSO 1014,5 16
15.04.2019 19:00:00 14,0 9,0 9 5 SSE - 10
15.04.2019 18:00:00 15,0 10,0 15 8 ESE - 10
15.04.2019 17:00:00 15,4 8,9 21 11 E 1012,1 18
15.04.2019 16:00:00 15,0 8,0 22 12 E - 10
15.04.2019 15:00:00 15,0 6,0 15 8 ESE - 10
15.04.2019 14:00:00 16,8 4,2 31 17 ONO 1010,1 18
15.04.2019 13:00:00 18,0 4,0 26 14 ONO - 10
15.04.2019 12:00:00 16,0 6,0 26 14 NO - 10
15.04.2019 11:00:00 15,6 7,6 26 14 O 1009,4 16
15.04.2019 10:00:00 15,0 9,0 22 12 ONO - 10
15.04.2019 09:00:00 12,0 10,0 9 5 NNO - 10

tt = Temperatura
td = dewpoint
ff = velocità del vento
dd = direzione del vento
ppp = reduced air pressure
vv = visibility

Stazioni seguenti

WeatherPro
AMSI
MeteoEarth